| time (UTC) | temp C | wind direction | speed KPH | gust KPH | rain 1hr cm | rain 24hr cm | rain mn cm | humidity % | barometer mb |
| 20260903023540 | 26 | 177 | 1.6 | 8.0 | 0.00 | 0.00 | 0.00 | 76 | 1016.5 |
| 20260903023043 | 26 | 150 | 1.6 | 14.5 | 0.00 | 0.00 | 0.00 | 75 | 1016.5 |
| 20260903022542 | 27 | 165 | 1.6 | 9.7 | 0.00 | 0.00 | 0.00 | 75 | 1016.5 |
| 20260903022039 | 27 | 171 | 1.6 | 8.0 | 0.00 | 0.00 | 0.00 | 75 | 1016.4 |
| 20260903021539 | 27 | 155 | 1.6 | 9.7 | 0.00 | 0.00 | 0.00 | 74 | 1016.4 |
| 20260903021041 | 26 | 195 | 1.6 | 11.3 | 0.00 | 0.00 | 0.00 | 75 | 1016.3 |
| 20260903020639 | 26 | 171 | 1.6 | 11.3 | 0.00 | 0.00 | 0.00 | 76 | 1016.2 |
| 20260903015558 | 26 | 206 | 1.6 | 9.7 | 0.00 | 0.00 | 0.00 | 76 | 1016.1 |
| 20260903015058 | 26 | 189 | 1.6 | 8.0 | 0.00 | 0.00 | 0.00 | 76 | 1016.0 |
| 20260903014623 | 26 | 144 | 1.6 | 6.4 | 0.00 | 0.00 | 0.00 | 76 | 1015.9 |
| 20260903014101 | 27 | 168 | 0.0 | 8.0 | 0.00 | 0.00 | 0.00 | 75 | 1015.9 |
| 20260903013557 | 27 | 176 | 1.6 | 8.0 | 0.00 | 0.00 | 0.00 | 75 | 1015.7 |
| 20260903013107 | 27 | 192 | 1.6 | 4.8 | 0.00 | 0.00 | 0.00 | 74 | 1015.7 |
| 20260903012557 | 27 | 192 | 1.6 | 4.8 | 0.00 | 0.00 | 0.00 | 74 | 1015.6 |
| 20260903012057 | 27 | 184 | 0.0 | 1.6 | 0.00 | 0.00 | 0.00 | 74 | 1015.6 |
| 20260903011557 | 27 | 184 | 0.0 | 3.2 | 0.00 | 0.00 | 0.00 | 73 | 1015.4 |
| 20260903011057 | 27 | 155 | 0.0 | 3.2 | 0.00 | 0.00 | 0.00 | 72 | 1015.4 |
| 20260903010656 | 27 | 165 | 0.0 | 3.2 | 0.00 | 0.00 | 0.00 | 71 | 1015.4 |
| 20260903010057 | 27 | 154 | 0.0 | 11.3 | 0.00 | 0.00 | 0.00 | 71 | 1015.4 |
| 20260903005557 | 27 | 157 | 1.6 | 11.3 | 0.00 | 0.00 | 0.00 | 70 | 1015.4 |
| 20260903005056 | 27 | 119 | 1.6 | 6.4 | 0.00 | 0.00 | 0.00 | 69 | 1015.4 |
| 20260903004600 | 27 | 121 | 0.0 | 4.8 | 0.00 | 0.00 | 0.00 | 68 | 1015.5 |
| 20260903004055 | 28 | 108 | 0.0 | 3.2 | 0.00 | 0.00 | 0.00 | 69 | 1015.4 |
| 20260903003556 | 28 | 157 | 0.0 | 3.2 | 0.00 | 0.00 | 0.00 | 65 | 1015.4 |
| 20260903003109 | 29 | 148 | 1.6 | 4.8 | 0.00 | 0.00 | 0.00 | 63 | 1015.5 |
| 20260903002555 | 30 | 170 | 1.6 | 4.8 | 0.00 | 0.00 | 0.00 | 62 | 1015.4 |
| 20260903002055 | 30 | 187 | 1.6 | 4.8 | 0.00 | 0.00 | 0.00 | 59 | 1015.3 |
| 20260903001555 | 30 | 182 | 1.6 | 12.9 | 0.00 | 0.00 | 0.00 | 59 | 1015.3 |
| 20260903001054 | 31 | 159 | 3.2 | 12.9 | 0.00 | 0.00 | 0.00 | 58 | 1015.2 |
| 20260903000653 | 31 | 161 | 1.6 | 8.0 | 0.00 | 0.00 | 0.00 | 53 | 1015.3 |
| 20260903000104 | 32 | 157 | 4.8 | 12.9 | 0.00 | 0.00 | 0.00 | 54 | 1015.3 |
| 20260902235555 | 32 | 126 | 4.8 | 16.1 | 0.00 | 0.00 | 0.00 | 50 | 1015.3 |
| 20260902235052 | 32 | 131 | 6.4 | 16.1 | 0.00 | 0.00 | 0.00 | 52 | 1015.3 |
| 20260902234552 | 32 | 193 | 4.8 | 12.9 | 0.00 | 0.00 | 0.00 | 50 | 1015.3 |
| 20260902234053 | 33 | 123 | 3.2 | 9.7 | 0.00 | 0.00 | 0.00 | 48 | 1015.3 |
| 20260902233550 | 33 | 137 | 3.2 | 12.9 | 0.00 | 0.00 | 0.00 | 48 | 1015.2 |
| 20260902233050 | 33 | 145 | 3.2 | 16.1 | 0.00 | 0.00 | 0.00 | 44 | 1015.3 |
| 20260902232551 | 33 | 149 | 6.4 | 16.1 | 0.00 | 0.00 | 0.00 | 44 | 1015.3 |
| 20260902232049 | 33 | 144 | 4.8 | 12.9 | 0.00 | 0.00 | 0.00 | 44 | 1015.3 |
| 20260902231549 | 33 | 128 | 3.2 | 12.9 | 0.00 | 0.00 | 0.00 | 48 | 1015.3 |
| 20260902231049 | 33 | 327 | 4.8 | 14.5 | 0.00 | 0.00 | 0.00 | 47 | 1015.3 |
| 20260902230649 | 34 | 225 | 4.8 | 14.5 | 0.00 | 0.00 | 0.00 | 45 | 1015.3 |
| 20260902230057 | 34 | 170 | 4.8 | 11.3 | 0.00 | 0.00 | 0.00 | 46 | 1015.3 |
| 20260902225552 | 34 | 129 | 3.2 | 14.5 | 0.00 | 0.00 | 0.00 | 48 | 1015.3 |
| 20260902225047 | 34 | 182 | 4.8 | 16.1 | 0.00 | 0.00 | 0.00 | 45 | 1015.3 |
| 20260902224605 | 34 | 223 | 4.8 | 16.1 | 0.00 | 0.00 | 0.00 | 46 | 1015.2 |
| 20260902224046 | 34 | 143 | 3.2 | 12.9 | 0.00 | 0.00 | 0.00 | 45 | 1015.2 |
| 20260902223549 | 34 | 181 | 4.8 | 12.9 | 0.00 | 0.00 | 0.00 | 47 | 1015.3 |
| 20260902223055 | 33 | 173 | 3.2 | 19.3 | 0.00 | 0.00 | 0.00 | 49 | 1015.3 |
| 20260902222545 | 33 | 159 | 8.0 | 19.3 | 0.00 | 0.00 | 0.00 | 48 | 1015.3 |
| 20260902222045 | 32 | 122 | 3.2 | 11.3 | 0.00 | 0.00 | 0.00 | 50 | 1015.4 |
| 20260902221545 | 33 | 130 | 3.2 | 11.3 | 0.00 | 0.00 | 0.00 | 50 | 1015.4 |
| 20260902221045 | 33 | 160 | 1.6 | 19.3 | 0.00 | 0.00 | 0.00 | 48 | 1015.4 |
| 20260902220644 | 34 | 131 | 4.8 | 19.3 | 0.00 | 0.00 | 0.00 | 45 | 1015.3 |
| 20260902220044 | 35 | 175 | 8.0 | 19.3 | 0.00 | 0.00 | 0.00 | 43 | 1015.5 |
| 20260902215543 | 35 | 184 | 4.8 | 14.5 | 0.00 | 0.00 | 0.00 | 43 | 1015.5 |
| 20260902215047 | 35 | 162 | 1.6 | 14.5 | 0.00 | 0.00 | 0.00 | 46 | 1015.5 |
| 20260902214610 | 35 | 159 | 4.8 | 14.5 | 0.00 | 0.00 | 0.00 | 44 | 1015.6 |
| 20260902214042 | 35 | 141 | 3.2 | 14.5 | 0.00 | 0.00 | 0.00 | 46 | 1015.6 |
| 20260902213541 | 35 | 155 | 3.2 | 16.1 | 0.00 | 0.00 | 0.00 | 43 | 1015.7 |
| 20260902213042 | 35 | 175 | 6.4 | 14.5 | 0.00 | 0.00 | 0.00 | 43 | 1015.7 |
| 20260902212541 | 36 | 211 | 6.4 | 16.1 | 0.00 | 0.00 | 0.00 | 41 | 1015.7 |
| 20260902212041 | 36 | 207 | 6.4 | 16.1 | 0.00 | 0.00 | 0.00 | 41 | 1015.6 |
| 20260902211541 | 36 | 173 | 4.8 | 11.3 | 0.00 | 0.00 | 0.00 | 41 | 1015.6 |
| 20260902211040 | 36 | 173 | 3.2 | 11.3 | 0.00 | 0.00 | 0.00 | 40 | 1015.7 |
| 20260902210639 | 36 | 209 | 4.8 | 16.1 | 0.00 | 0.00 | 0.00 | 40 | 1015.7 |
| 20260902210100 | 36 | 206 | 3.2 | 16.1 | 0.00 | 0.00 | 0.00 | 40 | 1015.7 |
| 20260902205600 | 36 | 169 | 4.8 | 14.5 | 0.00 | 0.00 | 0.00 | 42 | 1015.7 |
| 20260902205058 | 36 | 127 | 4.8 | 14.5 | 0.00 | 0.00 | 0.00 | 39 | 1015.7 |
| 20260902204607 | 36 | 200 | 3.2 | 12.9 | 0.00 | 0.00 | 0.00 | 41 | 1015.8 |
| 20260902204058 | 36 | 248 | 3.2 | 16.1 | 0.00 | 0.00 | 0.00 | 41 | 1015.9 |
| 20260902203557 | 36 | 165 | 6.4 | 17.7 | 0.00 | 0.00 | 0.00 | 40 | 1015.9 |
| 20260902203057 | 36 | 213 | 8.0 | 17.7 | 0.00 | 0.00 | 0.00 | 41 | 1016.0 |
| 20260902202557 | 36 | 165 | 4.8 | 16.1 | 0.00 | 0.00 | 0.00 | 45 | 1016.0 |
| 20260902202057 | 36 | 173 | 6.4 | 19.3 | 0.00 | 0.00 | 0.00 | 39 | 1016.1 |
| 20260902201621 | 37 | 113 | 8.0 | 19.3 | 0.00 | 0.00 | 0.00 | 39 | 1016.1 |
| 20260902201055 | 36 | 217 | 4.8 | 17.7 | 0.00 | 0.00 | 0.00 | 40 | 1016.1 |
| 20260902200656 | 37 | 191 | 6.4 | 17.7 | 0.00 | 0.00 | 0.00 | 40 | 1016.3 |
| 20260902200057 | 37 | 180 | 4.8 | 12.9 | 0.00 | 0.00 | 0.00 | 43 | 1016.4 |
| 20260902195556 | 37 | 225 | 6.4 | 17.7 | 0.00 | 0.00 | 0.00 | 40 | 1016.4 |
| 20260902195055 | 36 | 169 | 6.4 | 17.7 | 0.00 | 0.00 | 0.00 | 41 | 1016.5 |
| 20260902194554 | 36 | 219 | 3.2 | 16.1 | 0.00 | 0.00 | 0.00 | 46 | 1016.5 |
| 20260902194052 | 35 | 239 | 0.0 | 12.9 | 0.00 | 0.00 | 0.00 | 49 | 1016.6 |
| 20260902193556 | 35 | 164 | 3.2 | 17.7 | 0.00 | 0.00 | 0.00 | 45 | 1016.7 |
| 20260902193053 | 35 | 124 | 3.2 | 16.1 | 0.00 | 0.00 | 0.00 | 43 | 1016.7 |
| 20260902192552 | 35 | 244 | 3.2 | 9.7 | 0.00 | 0.00 | 0.00 | 46 | 1016.9 |
| 20260902192052 | 35 | 257 | 1.6 | 12.9 | 0.00 | 0.00 | 0.00 | 45 | 1016.9 |
| 20260902191552 | 35 | 191 | 6.4 | 12.9 | 0.00 | 0.00 | 0.00 | 46 | 1016.9 |
| 20260902191050 | 35 | 355 | 3.2 | 12.9 | 0.00 | 0.00 | 0.00 | 46 | 1016.9 |
| 20260902190653 | 33 | 342 | 3.2 | 8.0 | 0.00 | 0.00 | 0.00 | 50 | 1017.0 |
| 20260902190049 | 31 | 40 | 1.6 | 9.7 | 0.00 | 0.00 | 0.00 | 62 | 1017.1 |
| 20260902185548 | 32 | 101 | 1.6 | 9.7 | 0.00 | 0.00 | 0.00 | 58 | 1017.3 |
| 20260902185047 | 33 | 200 | 1.6 | 6.4 | 0.00 | 0.00 | 0.00 | 60 | 1017.2 |
| 20260902184547 | 34 | 323 | 1.6 | 8.0 | 0.00 | 0.00 | 0.00 | 47 | 1017.3 |
| 20260902184046 | 35 | 294 | 1.6 | 8.0 | 0.00 | 0.00 | 0.00 | 46 | 1017.4 |
| 20260902183546 | 35 | 232 | 0.0 | 8.0 | 0.00 | 0.00 | 0.00 | 45 | 1017.4 |
| 20260902183046 | 35 | 318 | 3.2 | 8.0 | 0.00 | 0.00 | 0.00 | 43 | 1017.5 |
| 20260902182545 | 36 | 264 | 3.2 | 9.7 | 0.00 | 0.00 | 0.00 | 45 | 1017.5 |
| 20260902182045 | 35 | 194 | 1.6 | 11.3 | 0.00 | 0.00 | 0.00 | 47 | 1017.6 |
| 20260902181545 | 35 | 276 | 1.6 | 6.4 | 0.00 | 0.00 | 0.00 | 49 | 1017.7 |
| 20260902181044 | 35 | 167 | 0.0 | 8.0 | 0.00 | 0.00 | 0.00 | 46 | 1017.7 |
| 20260902180644 | 35 | 272 | 3.2 | 8.0 | 0.00 | 0.00 | 0.00 | 46 | 1017.7 |
| 20260902180046 | 35 | 340 | 1.6 | 6.4 | 0.00 | 0.00 | 0.00 | 46 | 1017.7 |
| 20260902175546 | 35 | 315 | 1.6 | 11.3 | 0.00 | 0.00 | 0.00 | 46 | 1017.9 |
| 20260902175045 | 35 | 107 | 3.2 | 11.3 | 0.00 | 0.00 | 0.00 | 46 | 1017.9 |
| 20260902174550 | 35 | 129 | 3.2 | 6.4 | 0.00 | 0.00 | 0.00 | 51 | 1017.8 |
| 20260902174046 | 35 | 82 | 0.0 | 11.3 | 0.00 | 0.00 | 0.00 | 47 | 1018.0 |
| 20260902173543 | 35 | 138 | 4.8 | 11.3 | 0.00 | 0.00 | 0.00 | 45 | 1018.2 |
| 20260902173042 | 35 | 182 | 0.0 | 6.4 | 0.00 | 0.00 | 0.00 | 48 | 1018.1 |
| 20260902172542 | 35 | 192 | 3.2 | 9.7 | 0.00 | 0.00 | 0.00 | 46 | 1018.2 |
| 20260902172044 | 35 | 198 | 4.8 | 9.7 | 0.00 | 0.00 | 0.00 | 43 | 1018.2 |
| 20260902171543 | 35 | 183 | 3.2 | 9.7 | 0.00 | 0.00 | 0.00 | 44 | 1018.3 |
| 20260902171040 | 35 | 15 | 1.6 | 6.4 | 0.00 | 0.00 | 0.00 | 44 | 1018.3 |
| 20260902170510 | 36 | 165 | 1.6 | 8.0 | 0.00 | 0.00 | 0.00 | 48 | 1018.5 |
| 20260902170009 | 35 | 293 | 3.2 | 16.1 | 0.00 | 0.00 | 0.00 | 45 | 1018.5 |
| 20260902165509 | 35 | 279 | 8.0 | 16.1 | 0.00 | 0.00 | 0.00 | 45 | 1018.6 |
| 20260902165011 | 35 | 220 | 1.6 | 11.3 | 0.00 | 0.00 | 0.00 | 48 | 1018.6 |
| 20260902164513 | 35 | 257 | 4.8 | 11.3 | 0.00 | 0.00 | 0.00 | 50 | 1018.7 |
| 20260902164006 | 35 | 294 | 3.2 | 12.9 | 0.00 | 0.00 | 0.00 | 49 | 1018.8 |
| 20260902163503 | 35 | 288 | 3.2 | 14.5 | 0.00 | 0.00 | 0.00 | 49 | 1018.9 |
| 20260902163002 | 34 | 335 | 1.6 | 17.7 | 0.00 | 0.00 | 0.00 | 50 | 1018.9 |
| 20260902162502 | 34 | 322 | 8.0 | 17.7 | 0.00 | 0.00 | 0.00 | 50 | 1019.0 |
| 20260902162100 | 34 | 331 | 6.4 | 14.5 | 0.00 | 0.00 | 0.00 | 50 | 1019.0 |
| 20260902161559 | 34 | 269 | 6.4 | 16.1 | 0.00 | 0.00 | 0.00 | 50 | 1019.0 |
| 20260902161058 | 34 | 323 | 4.8 | 16.1 | 0.00 | 0.00 | 0.00 | 51 | 1019.1 |
| 20260902160509 | 34 | 281 | 3.2 | 19.3 | 0.00 | 0.00 | 0.00 | 52 | 1019.1 |
| 20260902160009 | 34 | 309 | 4.8 | 19.3 | 0.00 | 0.00 | 0.00 | 54 | 1019.1 |
| 20260902155505 | 34 | 307 | 6.4 | 14.5 | 0.00 | 0.00 | 0.00 | 53 | 1019.2 |
| 20260902155007 | 34 | 309 | 1.6 | 17.7 | 0.00 | 0.00 | 0.00 | 56 | 1019.1 |
| 20260902154507 | 33 | 341 | 6.4 | 17.7 | 0.00 | 0.00 | 0.00 | 55 | 1019.1 |
| 20260902154001 | 33 | 238 | 1.6 | 14.5 | 0.00 | 0.00 | 0.00 | 57 | 1019.1 |
| 20260902153600 | 33 | 171 | 4.8 | 19.3 | 0.00 | 0.00 | 0.00 | 57 | 1019.3 |
| 20260902153058 | 33 | 207 | 4.8 | 19.3 | 0.00 | 0.00 | 0.00 | 57 | 1019.2 |
| 20260902152556 | 32 | 263 | 3.2 | 17.7 | 0.00 | 0.00 | 0.00 | 59 | 1019.3 |
| 20260902152055 | 32 | 138 | 9.7 | 17.7 | 0.00 | 0.00 | 0.00 | 59 | 1019.4 |
| 20260902151558 | 31 | 138 | 4.8 | 17.7 | 0.00 | 0.00 | 0.00 | 61 | 1019.3 |
| 20260902151057 | 32 | 301 | 4.8 | 14.5 | 0.00 | 0.00 | 0.00 | 60 | 1019.5 |
| 20260902150506 | 32 | 325 | 1.6 | 14.5 | 0.00 | 0.00 | 0.00 | 59 | 1019.4 |
| 20260902150009 | 32 | 272 | 4.8 | 14.5 | 0.00 | 0.00 | 0.00 | 61 | 1019.4 |
| 20260902145504 | 32 | 242 | 1.6 | 11.3 | 0.00 | 0.00 | 0.00 | 61 | 1019.4 |
| 20260902145001 | 32 | 24 | 6.4 | 14.5 | 0.00 | 0.00 | 0.00 | 60 | 1019.3 |
| 20260902144602 | 31 | 180 | 3.2 | 14.5 | 0.00 | 0.00 | 0.00 | 62 | 1019.4 |
| 20260902144059 | 31 | 223 | 1.6 | 11.3 | 0.00 | 0.00 | 0.00 | 63 | 1019.4 |
| 20260902143558 | 31 | 216 | 3.2 | 14.5 | 0.00 | 0.00 | 0.00 | 63 | 1019.5 |
| 20260902143057 | 31 | 156 | 4.8 | 14.5 | 0.00 | 0.00 | 0.00 | 64 | 1019.4 |
| 20260902142556 | 31 | 177 | 3.2 | 11.3 | 0.00 | 0.00 | 0.00 | 66 | 1019.5 |
| 20260902142054 | 31 | 232 | 3.2 | 9.7 | 0.00 | 0.00 | 0.00 | 66 | 1019.5 |
| 20260902141554 | 30 | 288 | 3.2 | 9.7 | 0.00 | 0.00 | 0.00 | 67 | 1019.5 |
| 20260902141051 | 30 | 313 | 1.6 | 8.0 | 0.00 | 0.00 | 0.00 | 67 | 1019.4 |
| 20260902140502 | 30 | 209 | 1.6 | 9.7 | 0.00 | 0.00 | 0.00 | 69 | 1019.6 |
| 20260902140108 | 29 | 192 | 3.2 | 9.7 | 0.00 | 0.00 | 0.00 | 70 | 1019.7 |
| 20260902135558 | 28 | 173 | 1.6 | 9.7 | 0.00 | 0.00 | 0.00 | 70 | 1019.7 |
| 20260902135056 | 28 | 171 | 1.6 | 9.7 | 0.00 | 0.00 | 0.00 | 70 | 1019.7 |
| 20260902134555 | 28 | 159 | 1.6 | 11.3 | 0.00 | 0.00 | 0.00 | 73 | 1019.7 |
| 20260902134053 | 27 | 228 | 0.0 | 6.4 | 0.00 | 0.00 | 0.00 | 76 | 1019.8 |
| 20260902133552 | 26 | 307 | 0.0 | 8.0 | 0.00 | 0.00 | 0.00 | 82 | 1019.8 |
| 20260902133101 | 24 | 332 | 1.6 | 8.0 | 0.00 | 0.00 | 0.00 | 89 | 1019.8 |
| 20260902132550 | 23 | 186 | 0.0 | 3.2 | 0.00 | 0.00 | 0.00 | 92 | 1019.8 |
| 20260902132048 | 22 | 221 | 0.0 | 3.2 | 0.00 | 0.00 | 0.00 | 93 | 1019.9 |
| 20260902131557 | 22 | 187 | 0.0 | 1.6 | 0.00 | 0.00 | 0.00 | 93 | 1019.9 |
| 20260902131048 | 22 | 166 | 0.0 | 1.6 | 0.00 | 0.00 | 0.00 | 94 | 1019.9 |
| 20260902130650 | 21 | 163 | 0.0 | 1.6 | 0.00 | 0.00 | 0.00 | 94 | 1019.8 |
| 20260902130054 | 21 | 163 | 0.0 | 0.0 | 0.00 | 0.00 | 0.00 | 94 | 1019.8 |
| 20260902125555 | 21 | 163 | 0.0 | 0.0 | 0.00 | 0.00 | 0.00 | 94 | 1019.8 |
| 20260902125051 | 21 | 163 | 0.0 | 0.0 | 0.00 | 0.00 | 0.00 | 95 | 1019.8 |
| 20260902124551 | 20 | 163 | 0.0 | 0.0 | 0.00 | 0.00 | 0.00 | 95 | 1019.9 |
| 20260902124049 | 20 | 163 | 0.0 | 0.0 | 0.00 | 0.00 | 0.00 | 95 | 1019.9 |
| 20260902123550 | 20 | 163 | 0.0 | 0.0 | 0.00 | 0.00 | 0.00 | 94 | 1019.9 |
| 20260902123047 | 20 | 163 | 0.0 | 0.0 | 0.00 | 0.00 | 0.00 | 94 | 1019.8 |
| 20260902122547 | 20 | 163 | 0.0 | 0.0 | 0.00 | 0.00 | 0.00 | 94 | 1019.8 |
| 20260902122045 | 20 | 163 | 0.0 | 0.0 | 0.00 | 0.00 | 0.00 | 95 | 1019.6 |
| 20260902121552 | 20 | 163 | 0.0 | 0.0 | 0.00 | 0.00 | 0.00 | 95 | 1019.7 |
| 20260902121045 | 20 | 163 | 0.0 | 0.0 | 0.00 | 0.00 | 0.00 | 95 | 1019.6 |
| 20260902120645 | 20 | 163 | 0.0 | 0.0 | 0.00 | 0.00 | 0.00 | 95 | 1019.6 |
| 20260902120045 | 20 | 155 | 0.0 | 0.0 | 0.00 | 0.00 | 0.00 | 95 | 1019.5 |
| 20260902115545 | 20 | 155 | 0.0 | 0.0 | 0.00 | 0.00 | 0.00 | 95 | 1019.5 |
| 20260902115044 | 20 | 155 | 0.0 | 0.0 | 0.00 | 0.00 | 0.00 | 95 | 1019.3 |
| 20260902114550 | 20 | 155 | 0.0 | 0.0 | 0.00 | 0.00 | 0.00 | 94 | 1019.3 |
| 20260902114043 | 20 | 155 | 0.0 | 0.0 | 0.00 | 0.00 | 0.00 | 94 | 1019.2 |
| 20260902113542 | 20 | 155 | 0.0 | 0.0 | 0.00 | 0.00 | 0.00 | 94 | 1019.2 |
| 20260902113053 | 20 | 155 | 0.0 | 0.0 | 0.00 | 0.00 | 0.00 | 94 | 1019.2 |
| 20260902112540 | 20 | 155 | 0.0 | 0.0 | 0.00 | 0.00 | 0.00 | 94 | 1019.1 |
| 20260902112039 | 20 | 155 | 0.0 | 0.0 | 0.00 | 0.00 | 0.00 | 94 | 1019.0 |
| 20260902111539 | 20 | 155 | 0.0 | 0.0 | 0.00 | 0.00 | 0.00 | 94 | 1018.8 |
| 20260902111038 | 20 | 155 | 0.0 | 0.0 | 0.00 | 0.00 | 0.00 | 94 | 1018.8 |
| 20260902110640 | 20 | 155 | 0.0 | 0.0 | 0.00 | 0.00 | 0.00 | 94 | 1018.8 |
| 20260902110101 | 20 | 155 | 0.0 | 0.0 | 0.00 | 0.00 | 0.00 | 94 | 1018.7 |
| 20260902105559 | 20 | 155 | 0.0 | 0.0 | 0.00 | 0.00 | 0.00 | 94 | 1018.7 |
| 20260902105059 | 20 | 155 | 0.0 | 0.0 | 0.00 | 0.00 | 0.00 | 94 | 1018.6 |
| 20260902104611 | 20 | 155 | 0.0 | 0.0 | 0.00 | 0.00 | 0.00 | 94 | 1018.7 |
| 20260902104057 | 20 | 155 | 0.0 | 0.0 | 0.00 | 0.00 | 0.00 | 94 | 1018.6 |
| 20260902103557 | 20 | 155 | 0.0 | 0.0 | 0.00 | 0.00 | 0.00 | 94 | 1018.5 |
| 20260902103104 | 20 | 155 | 0.0 | 0.0 | 0.00 | 0.00 | 0.00 | 93 | 1018.7 |
| 20260902102558 | 20 | 155 | 0.0 | 0.0 | 0.00 | 0.00 | 0.00 | 93 | 1018.6 |
| 20260902102056 | 20 | 155 | 0.0 | 0.0 | 0.00 | 0.00 | 0.00 | 93 | 1018.6 |
| 20260902101556 | 21 | 155 | 0.0 | 0.0 | 0.00 | 0.00 | 0.00 | 93 | 1018.6 |
| 20260902101055 | 21 | 155 | 0.0 | 0.0 | 0.00 | 0.00 | 0.00 | 93 | 1018.5 |
| 20260902100654 | 21 | 155 | 0.0 | 0.0 | 0.00 | 0.00 | 0.00 | 92 | 1018.6 |
| 20260902095558 | 21 | 155 | 0.0 | 0.0 | 0.00 | 0.00 | 0.00 | 92 | 1018.5 |
| 20260902095056 | 21 | 155 | 0.0 | 0.0 | 0.00 | 0.00 | 0.00 | 92 | 1018.5 |
| 20260902094557 | 21 | 155 | 0.0 | 0.0 | 0.00 | 0.00 | 0.00 | 92 | 1018.6 |
| 20260902094056 | 21 | 155 | 0.0 | 0.0 | 0.00 | 0.00 | 0.00 | 91 | 1018.6 |
| 20260902093555 | 21 | 155 | 0.0 | 0.0 | 0.00 | 0.00 | 0.00 | 91 | 1018.6 |
| 20260902093055 | 21 | 155 | 0.0 | 0.0 | 0.00 | 0.00 | 0.00 | 91 | 1018.7 |
| 20260902092554 | 21 | 155 | 0.0 | 0.0 | 0.00 | 0.00 | 0.00 | 91 | 1018.7 |
| 20260902092055 | 21 | 155 | 0.0 | 0.0 | 0.00 | 0.00 | 0.00 | 91 | 1018.7 |
| 20260902091604 | 21 | 155 | 0.0 | 0.0 | 0.00 | 0.00 | 0.00 | 91 | 1018.6 |
| 20260902091053 | 21 | 155 | 0.0 | 0.0 | 0.00 | 0.00 | 0.00 | 90 | 1018.6 |
| 20260902090654 | 21 | 155 | 0.0 | 0.0 | 0.00 | 0.00 | 0.00 | 90 | 1018.6 |
| 20260902090058 | 21 | 155 | 0.0 | 0.0 | 0.00 | 0.00 | 0.00 | 90 | 1018.6 |
| 20260902085551 | 21 | 155 | 0.0 | 0.0 | 0.00 | 0.00 | 0.00 | 89 | 1018.4 |
| 20260902085051 | 21 | 155 | 0.0 | 0.0 | 0.00 | 0.00 | 0.00 | 89 | 1018.5 |
| 20260902084557 | 21 | 155 | 0.0 | 0.0 | 0.00 | 0.00 | 0.00 | 90 | 1018.4 |
| 20260902084051 | 22 | 155 | 0.0 | 0.0 | 0.00 | 0.00 | 0.00 | 89 | 1018.4 |
| 20260902083551 | 22 | 155 | 0.0 | 0.0 | 0.00 | 0.00 | 0.00 | 89 | 1018.3 |
| 20260902083111 | 22 | 155 | 0.0 | 0.0 | 0.00 | 0.00 | 0.00 | 89 | 1018.3 |
| 20260902082550 | 22 | 155 | 0.0 | 0.0 | 0.00 | 0.00 | 0.00 | 89 | 1018.3 |
| 20260902082050 | 22 | 155 | 0.0 | 0.0 | 0.00 | 0.00 | 0.00 | 89 | 1018.4 |
| 20260902081550 | 22 | 141 | 0.0 | 1.6 | 0.00 | 0.00 | 0.00 | 89 | 1018.4 |
| 20260902081050 | 22 | 153 | 0.0 | 0.0 | 0.00 | 0.00 | 0.00 | 88 | 1018.4 |
| 20260902080650 | 22 | 153 | 0.0 | 0.0 | 0.00 | 0.00 | 0.00 | 88 | 1018.5 |
| 20260902080043 | 22 | 153 | 0.0 | 1.6 | 0.00 | 0.00 | 0.00 | 88 | 1018.4 |
| 20260902075546 | 22 | 153 | 0.0 | 1.6 | 0.00 | 0.00 | 0.00 | 88 | 1018.4 |
| 20260902075042 | 22 | 153 | 0.0 | 0.0 | 0.00 | 0.00 | 0.00 | 88 | 1018.2 |
| 20260902074542 | 22 | 153 | 0.0 | 3.2 | 0.00 | 0.00 | 0.00 | 88 | 1018.4 |
| 20260902074041 | 22 | 153 | 0.0 | 3.2 | 0.00 | 0.00 | 0.00 | 88 | 1018.2 |
| 20260902073540 | 22 | 150 | 0.0 | 0.0 | 0.00 | 0.00 | 0.00 | 88 | 1018.2 |
| 20260902073041 | 22 | 177 | 0.0 | 0.0 | 0.00 | 0.00 | 0.00 | 88 | 1018.4 |
| 20260902072544 | 22 | 177 | 0.0 | 3.2 | 0.00 | 0.00 | 0.00 | 88 | 1018.4 |
| 20260902072040 | 22 | 142 | 0.0 | 6.4 | 0.00 | 0.00 | 0.00 | 87 | 1018.5 |
| 20260902071540 | 22 | 163 | 0.0 | 6.4 | 0.00 | 0.00 | 0.00 | 88 | 1018.4 |
| 20260902071039 | 22 | 134 | 0.0 | 9.7 | 0.00 | 0.00 | 0.00 | 88 | 1018.4 |
| 20260902070639 | 22 | 130 | 1.6 | 9.7 | 0.00 | 0.00 | 0.00 | 88 | 1018.3 |
| 20260902070101 | 22 | 139 | 1.6 | 11.3 | 0.00 | 0.00 | 0.00 | 88 | 1018.2 |
| 20260902065600 | 22 | 188 | 1.6 | 11.3 | 0.00 | 0.00 | 0.00 | 88 | 1018.4 |
| 20260902065059 | 22 | 147 | 0.0 | 11.3 | 0.00 | 0.00 | 0.00 | 89 | 1018.4 |
| 20260902064559 | 22 | 159 | 3.2 | 11.3 | 0.00 | 0.00 | 0.00 | 89 | 1018.4 |
| 20260902064059 | 22 | 195 | 1.6 | 8.0 | 0.00 | 0.00 | 0.00 | 89 | 1018.4 |
| 20260902063559 | 22 | 159 | 1.6 | 8.0 | 0.00 | 0.00 | 0.00 | 89 | 1018.4 |
| 20260902063058 | 22 | 155 | 1.6 | 8.0 | 0.00 | 0.00 | 0.00 | 89 | 1018.4 |
| 20260902062559 | 22 | 171 | 3.2 | 8.0 | 0.00 | 0.00 | 0.00 | 89 | 1018.4 |
| 20260902062058 | 22 | 152 | 1.6 | 8.0 | 0.00 | 0.00 | 0.00 | 89 | 1018.4 |
| 20260902061558 | 22 | 141 | 1.6 | 4.8 | 0.00 | 0.00 | 0.00 | 88 | 1018.5 |
| 20260902061057 | 22 | 120 | 0.0 | 3.2 | 0.00 | 0.00 | 0.00 | 88 | 1018.5 |
| 20260902060658 | 22 | 155 | 0.0 | 4.8 | 0.00 | 0.00 | 0.00 | 88 | 1018.4 |
| 20260902060105 | 22 | 173 | 1.6 | 8.0 | 0.00 | 0.00 | 0.00 | 88 | 1018.3 |
| 20260902055556 | 23 | 129 | 0.0 | 8.0 | 0.00 | 0.00 | 0.00 | 88 | 1018.3 |
| 20260902055056 | 23 | 122 | 1.6 | 4.8 | 0.00 | 0.00 | 0.00 | 88 | 1018.3 |
| 20260902054606 | 23 | 184 | 1.6 | 6.4 | 0.00 | 0.00 | 0.00 | 89 | 1018.4 |
| 20260902054054 | 23 | 160 | 1.6 | 6.4 | 0.00 | 0.00 | 0.00 | 88 | 1018.2 |
| 20260902053554 | 23 | 135 | 1.6 | 8.0 | 0.00 | 0.00 | 0.00 | 89 | 1018.2 |
| 20260902053105 | 23 | 127 | 3.2 | 8.0 | 0.00 | 0.00 | 0.00 | 89 | 1018.1 |
| 20260902052553 | 23 | 170 | 3.2 | 9.7 | 0.00 | 0.00 | 0.00 | 90 | 1018.1 |
| 20260902052053 | 23 | 126 | 3.2 | 9.7 | 0.00 | 0.00 | 0.00 | 90 | 1018.0 |
| 20260902051602 | 23 | 136 | 0.0 | 8.0 | 0.00 | 0.00 | 0.00 | 90 | 1018.1 |
| 20260902051052 | 23 | 164 | 0.0 | 8.0 | 0.00 | 0.00 | 0.00 | 89 | 1018.0 |
| 20260902050652 | 23 | 155 | 0.0 | 6.4 | 0.00 | 0.00 | 0.00 | 89 | 1018.1 |
| 20260902050058 | 23 | 178 | 1.6 | 6.4 | 0.00 | 0.00 | 0.00 | 89 | 1017.9 |
| 20260902045552 | 23 | 175 | 0.0 | 0.0 | 0.00 | 0.00 | 0.00 | 89 | 1017.9 |
| 20260902045050 | 23 | 154 | 0.0 | 0.0 | 0.00 | 0.00 | 0.00 | 89 | 1017.9 |
| 20260902044551 | 23 | 155 | 0.0 | 3.2 | 0.00 | 0.00 | 0.00 | 89 | 1017.9 |
| 20260902044050 | 23 | 191 | 0.0 | 3.2 | 0.00 | 0.00 | 0.00 | 89 | 1017.8 |
| 20260902043550 | 23 | 164 | 0.0 | 4.8 | 0.00 | 0.00 | 0.00 | 89 | 1017.8 |
| 20260902043058 | 23 | 193 | 0.0 | 4.8 | 0.00 | 0.00 | 0.00 | 89 | 1017.8 |
| 20260902042551 | 23 | 173 | 0.0 | 4.8 | 0.00 | 0.00 | 0.00 | 88 | 1017.7 |
| 20260902042051 | 23 | 178 | 0.0 | 0.0 | 0.00 | 0.00 | 0.00 | 88 | 1017.9 |
| 20260902041550 | 23 | 185 | 0.0 | 0.0 | 0.00 | 0.00 | 0.00 | 88 | 1017.8 |
| 20260902041050 | 23 | 213 | 0.0 | 0.0 | 0.00 | 0.00 | 0.00 | 88 | 1017.8 |
| 20260902040650 | 23 | 196 | 0.0 | 0.0 | 0.00 | 0.00 | 0.00 | 88 | 1017.7 |
| 20260902040049 | 23 | 176 | 0.0 | 0.0 | 0.00 | 0.00 | 0.00 | 89 | 1017.8 |
| 20260902035546 | 23 | 166 | 0.0 | 0.0 | 0.00 | 0.00 | 0.00 | 88 | 1017.7 |
| 20260902035046 | 23 | 187 | 0.0 | 1.6 | 0.00 | 0.00 | 0.00 | 89 | 1017.7 |
| 20260902034546 | 23 | 170 | 0.0 | 1.6 | 0.00 | 0.00 | 0.00 | 88 | 1017.7 |
| 20260902034045 | 24 | 179 | 0.0 | 3.2 | 0.00 | 0.00 | 0.00 | 88 | 1017.8 |
| 20260902033545 | 24 | 177 | 0.0 | 4.8 | 0.00 | 0.00 | 0.00 | 88 | 1017.8 |
| 20260902033046 | 24 | 185 | 0.0 | 4.8 | 0.00 | 0.00 | 0.00 | 88 | 1017.8 |
| 20260902032545 | 24 | 172 | 0.0 | 6.4 | 0.00 | 0.00 | 0.00 | 88 | 1017.8 |
| 20260902032045 | 24 | 177 | 0.0 | 6.4 | 0.00 | 0.00 | 0.00 | 87 | 1017.8 |
| 20260902031545 | 25 | 169 | 0.0 | 4.8 | 0.00 | 0.00 | 0.00 | 86 | 1017.7 |
| 20260902031045 | 25 | 191 | 0.0 | 4.8 | 0.00 | 0.00 | 0.00 | 86 | 1017.7 |
| 20260902030646 | 25 | 163 | 0.0 | 1.6 | 0.00 | 0.00 | 0.00 | 86 | 1017.7 |
| 20260902030042 | 25 | 180 | 0.0 | 1.6 | 0.00 | 0.00 | 0.00 | 86 | 1017.5 |
| 20260902025542 | 25 | 157 | 0.0 | 0.0 | 0.00 | 0.00 | 0.00 | 86 | 1017.4 |
| 20260902025042 | 25 | 157 | 0.0 | 4.8 | 0.00 | 0.00 | 0.00 | 87 | 1017.3 |
| 20260902024542 | 24 | 171 | 0.0 | 4.8 | 0.00 | 0.00 | 0.00 | 87 | 1017.3 |
| 20260902024044 | 25 | 183 | 0.0 | 6.4 | 0.00 | 0.00 | 0.00 | 87 | 1017.3 |